SCP
-0 -0 -0 0 0 0 0 -0 -0 -0 0 -0 -0 0 0 -0 -0 -0 -0 0 -0 -0 0 -0 -0 -0 -0 0 0 -0 0 0 0 0 -0 0 -0 -0 -0 -0 -0 0 -0 -0 0 0 0 0 0
-0 -0 -0 -0 0 -0 0 0 -0 -0 -0 -0 -0 -0 -0 0 0 -0 -0 -0 -0 -0 -0 -0 -0 -0 -0 -0 -0 -0 -0 -0 0 -0 0 -0 0 0 -0 0 0 0 0 0 0 0 0 0 0
-0 -0 -0 -0 0 -0 -0 -0 -0 -0 -0 -0 -0 -0 -0 -0 -0 -0 -0 -0 -0 -0 -0 -0 -0 -0 -0 -0 0 -0 -0 0 0 -0 0 0 -0 0 0 0 0 0 0 0 0 0 0 0 0
0 0 0 -0 0 -0 0 0 -0 -0 -0 -0 -0 -0 -0 -0 -0 0 -0 -0 -0 -0 0 -0 -0 -0 -0 -0 -0 -0 -0 -0 -0 0 0 0 0 0 0 0 0 0 0 0 0 0 0 0 0
0 -0 -0 -0 0 -0 -0 0 -0 -0 -0 -0 -0 0 -0 -0 -0 -0 -0 -0 -0 -0 -0 -0 -0 -0 -0 -0 -0 0 -0 -0 0 0 0 0 0 0 0 0 0 0 0 0 0 0 0 0 0
-0 0 -0 -0 0 0 0 -0 0 -0 -0 -0 -0 -0 -0 -0 -0 -0 -0 -0 -0 -0 -0 0 -0 -0 -0 -0 -0 -0 -0 0 0 -0 0 0 0 0 0 0 0 0 0 0 0 0 0 0 0
-0 0 0 0 0 -0 0 0 0 -0 -0 -0 -0 -0 0 -0 -0 -0 -0 -0 -0 -0 -0 0 0 0 0 -0 -0 -0 0 0 0 0 0 0 0 0 0 0 0 0 0 0 0 0 0 0 0
0 0 0 0 -0 0 0 0 0 0 0 -0 -0 -0 -0 -0 -0 -0 -0 -0 -0 -0 -0 0 0 0 0 -0 -0 -0 0 0 0 0 0 0 0 0 0 0 0 0 0 0 0 0 0 0 0
0 0 0 0 0 -0 0 0 0 0 0 -0 0 -0 -0 -0 -1 -0 -0 -0 -0 -0 0 -0 0 0 0 -0 -0 -0 -0 0 0 0 0 0 0 0 0 0 0 0 0 0 0 0 0 0 0
0 0 0 -0 0 0 0 0 0 0 0 0 0 -0 -0 -0 -1 -0 -0 -0 -0 0 0 -0 -0 0 0 -0 -0 -0 -0 -0 0 0 0 -0 0 0 0 0 0 0 0 0 0 0 0 0 0
0 0 0 -0 -0 0 0 0 0 0 0 0 -0 -0 -0 -0 -0 -0 -0 -0 -0 0 0 -0 -0 -0 0 -0 -0 -0 -0 -0 -0 0 0 -0 -0 -0 0 0 0 0 0 0 0 0 0 0 0
0 -0 -0 0 0 -0 0 0 0 0 0 0 -0 -0 -0 0 -0 -0 -0 -0 -0 -0 -0 -0 -0 0 -0 -0 -0 -0 -0 -0 -0 -0 -0 -0 0 0 0 0 0 0 0 0 0 0 0 0 0
0 0 0 -0 -0 0 0 0 0 0 0 -0 -0 -0 -0 0 -0 -0 -0 -0 -0 -0 -0 -0 0 0 -0 0 -0 -0 -0 -0 -0 -0 -0 -0 -0 -0 0 0 0 0 0 0 0 0 0 0 0
0 0 0 0 0 -0 0 0 0 0 -0 -0 -0 -0 -0 -0 -0 -0 -0 -0 -0 -0 -0 -0 -0 -0 0 0 -0 -0 -0 -0 -0 -0 -0 -0 -0 -0 -0 -0 0 0 0 0 0 0 0 0 0
0 0 0 0 -0 -0 0 0 0 0 -0 -0 -0 -0 -0 -0 -0 -0 -0 -0 -0 -0 -0 -0 -0 -0 -0 -0 -0 -0 0 -0 -0 0 -0 -0 -0 -0 -0 0 0 0 0 0 0 0 0 0 0
0 0 0 0 -0 -0 0 0 0 0 -0 -0 -0 -0 -0 0 -0 -0 0 -0 -0 -0 -0 -0 -0 -0 -0 0 0 0 0 0 0 0 -0 -0 -0 -0 -0 0 0 0 -0 0 0 0 0 0 0
0 0 0 -0 -0 0 -0 0 0 -0 0 -0 -0 -0 -0 0 -0 -0 0 -0 -0 -0 -0 -0 -0 -0 -0 0 0 0 -0 0 0 0 0 -0 -0 0 0 0 0 0 0 0 0 0 0 0 0
0 0 0 0 0 0 0 0 0 0 -0 -0 -0 -0 -0 -0 -0 0 0 -0 -0 -0 -0 -0 0 0 0 0 0 0 0 0 0 0 0 -0 0 0 0 -0 0 0 -0 0 0 0 0 0 0
0 -0 0 -0 -0 0 0 0 0 0 0 -0 -0 -0 -0 -0 -0 -0 -0 -0 -0 -0 -0 -0 0 0 0 0 0 0 0 0 0 0 0 0 0 0 -0 -0 -0 -0 0 0 0 0 0 0 0
-0 0 -0 0 0 0 0 0 0 0 -0 -0 -0 -0 -0 -0 -0 -0 -0 -0 -0 -0 -0 -0 -0 -0 0 0 0 0 0 0 0 -0 0 -0 -0 -0 -0 -0 -0 0 0 0 0 0 0 0 0
-0 -0 -0 0 -0 0 0 0 0 0 0 0 -0 -0 -0 -0 -0 -0 -0 -0 -0 -0 -0 -0 -0 -0 0 0 0 0 0 0 0 0 0 0 -0 0 -0 -0 -0 0 0 0 0 0 0 0 0
-0 -0 -0 -0 -0 0 0 -0 -0 -0 0 -0 -0 -0 -0 -0 -0 -0 -0 -0 -0 -0 -0 -0 -0 -0 0 0 0 0 0 0 -0 0 0 -0 -0 -0 -0 -0 0 0 0 0 0 0 0 0 0
-0 -0 0 -0 0 0 0 0 0 0 0 -0 -0 -0 -0 -0 -0 -0 -0 -0 -0 -0 -0 0 0 -0 0 0 0 0 0 0 -0 -0 -0 -0 -0 -0 0 0 0 0 0 0 0 0 0 0 0
-0 -0 0 0 0 0 -0 -0 0 0 -0 -0 -0 -0 -0 -0 -0 -1 -0 -0 -0 -0 -0 -0 0 0 0 0 0 0 0 0 -0 -0 -0 0 0 0 0 0 0 0 0 0 0 0 0 0 0
0 0 0 0 0 0 0 0 0 0 -0 0 -0 -0 -0 0 -0 -0 -1 -0 -1 -0 -0 -0 0 0 0 0 0 0 0 0 -0 0 0 0 0 0 0 0 0 0 0 0 -0 -0 0 0 0
0 0 -0 0 0 0 0 0 -0 0 0 -0 -0 0 0 -0 -0 -0 -1 -1 -0 -1 -0 -0 -0 0 0 0 0 0 0 -0 -0 -0 0 -0 0 0 0 0 -0 -0 -0 -0 -0 -0 -0 -0 -0
0 0 0 0 0 0 0 0 0 0 0 0 0 0 0 -0 -0 -0 -1 -0 -0 -1 -1 -1 -0 -0 0 0 0 0 0 -0 -0 -0 -0 -0 -0 -0 -0 0 -0 0 -0 -0 -0 0 0 0 0
-0 0 0 0 0 0 0 0 -0 0 0 0 0 0 0 -0 -0 -0 -0 -0 -0 -1 -1 -1 -0 -0 -0 0 0 0 0 0 -0 -0 -0 -0 -0 -0 -0 -0 -0 -0 -0 -0 -0 0 0 -0 0
-0 -0 -0 0 0 0 0 -0 0 -0 0 0 0 0 0 0 0 0 0 -0 -0 -1 -1 -2 -1 -0 0 0 0 0 0 0 0 0 -0 -0 -0 0 0 -0 -0 -0 -0 -0 -0 -0 -0 -0 -0
0 0 0 0 0 0 0 0 0 -0 0 0 0 0 0 0 -0 -0 -0 -0 -0 -0 -1 -1 -1 -1 -1 -0 -0 -0 -0 -0 -0 -0 0 -0 -0 -0 -0 -0 0 -0 -0 -0 0 -0 -0 -0 0
Wind_Speed_500mb
5 8 10 10 7 9 2 7 5 11 4 22 24 12 17 24 3 6 39 61 63 57 50 43 38 35 32 31 31 31 30 26 24 24 25 25 25 24 23 23 25 25 23 22 22 19 20 20 18
7 10 9 6 9 4 8 8 13 12 23 46 34 21 15 9 18 46 70 52 59 54 50 44 38 34 34 31 30 29 28 26 24 24 23 23 22 21 21 24 25 23 22 19 17 20 20 22 26
9 8 8 7 4 5 7 6 13 40 52 32 15 21 9 17 45 69 54 58 60 54 49 43 38 35 34 31 31 31 28 27 25 24 22 24 23 24 26 27 24 22 21 22 19 21 21 24 26
6 8 12 8 7 18 22 8 12 24 38 31 40 13 20 26 59 53 57 60 58 53 47 41 36 33 33 31 30 30 28 25 25 26 25 24 28 26 25 24 23 20 21 19 17 17 22 23 23
8 9 7 7 13 13 10 13 17 22 19 32 34 12 44 29 46 56 52 61 57 53 44 39 35 32 32 31 29 30 30 27 28 29 27 24 26 23 22 20 18 17 16 15 16 18 23 19 17
8 7 5 5 14 20 11 43 38 27 37 35 35 30 15 54 54 49 47 59 50 46 42 36 32 32 30 30 29 29 32 30 30 29 27 24 24 21 20 17 14 13 12 13 15 15 17 15 12
10 1 8 9 8 10 8 25 9 34 34 19 51 13 38 65 54 54 47 59 46 43 42 35 31 32 30 29 29 28 32 31 29 27 25 22 23 20 18 16 15 14 11 9 9 9 10 10 7
12 6 6 8 8 13 4 27 18 31 11 41 54 15 44 69 67 60 47 53 42 40 39 37 29 29 30 31 32 28 30 32 29 27 25 22 21 19 17 15 17 19 15 10 4 2 3 4 5
10 6 7 3 12 15 14 11 12 19 36 40 15 44 73 77 73 68 63 57 48 41 38 32 26 27 28 29 31 30 31 33 30 28 27 23 21 18 18 15 16 16 15 14 13 6 1 3 4
8 5 10 6 16 28 30 32 29 15 18 15 15 55 73 72 71 77 74 63 52 43 40 30 30 28 28 27 28 30 31 30 29 26 27 24 24 23 20 18 18 18 10 10 8 7 4 2 6
10 10 17 56 46 50 41 11 17 15 7 26 65 76 77 73 78 78 70 55 50 37 40 33 30 26 30 29 29 31 31 30 31 29 27 20 20 20 17 17 15 13 13 6 2 4 4 10 11
5 34 40 35 39 51 24 28 15 28 12 43 73 91 81 76 81 72 71 63 54 47 38 35 29 26 37 27 30 31 31 29 30 23 22 23 21 12 12 9 5 4 6 8 11 9 10 10 14
9 10 25 54 58 23 43 29 21 34 26 61 77 81 81 79 77 64 61 59 51 50 44 36 32 29 35 30 35 35 33 31 25 23 21 17 10 6 2 3 5 4 5 13 16 11 12 12 11
13 40 48 31 31 10 26 19 25 28 69 63 69 69 77 73 72 68 67 64 57 53 48 39 36 33 34 34 35 31 31 28 25 21 21 20 13 4 3 4 2 1 4 10 9 15 14 13 11
23 16 21 12 8 7 17 12 2 54 61 57 58 61 68 67 61 69 67 68 63 60 49 48 41 40 36 34 29 26 22 24 19 17 24 13 6 13 10 5 9 9 6 9 12 14 22 19 15
16 7 14 12 17 11 29 7 11 27 48 49 55 58 63 59 60 64 66 70 64 65 58 52 49 44 41 34 31 25 25 27 20 21 23 18 12 16 17 20 15 16 12 5 6 13 16 19 19
12 5 23 20 14 8 23 10 19 25 34 54 59 64 62 63 65 65 66 74 70 71 62 62 59 42 40 38 34 36 32 26 29 25 27 12 6 16 16 19 13 6 7 3 3 10 16 15 19
6 11 23 23 14 15 19 20 25 48 53 50 65 68 72 74 73 69 64 74 75 76 65 64 53 49 37 49 47 44 37 22 26 29 22 18 9 4 15 12 6 1 6 4 3 9 3 12 14
15 31 35 38 53 19 22 19 20 27 17 49 57 64 74 82 76 71 68 57 79 78 74 65 58 49 37 41 60 52 47 32 30 28 20 24 18 10 13 10 7 3 7 4 2 3 9 4 10
30 36 43 31 22 11 18 19 21 12 23 46 66 64 74 79 82 79 71 61 77 75 75 66 56 49 40 33 55 55 48 27 28 26 24 26 16 10 16 12 10 7 13 6 2 2 5 7 10
23 34 42 17 27 14 20 9 20 16 28 36 43 65 67 79 83 86 85 75 71 72 76 67 57 51 46 38 35 54 51 39 37 35 29 27 26 15 13 15 18 17 12 9 7 8 5 1 3
21 34 29 24 9 11 12 10 12 14 26 20 47 58 69 78 88 95 92 85 81 73 68 65 61 58 51 46 43 52 60 49 44 42 29 27 26 12 12 18 23 21 19 19 11 10 8 8 8
28 31 20 27 16 8 9 10 13 24 30 34 41 55 81 92 97 99 100 95 88 79 77 72 67 60 54 55 50 47 58 49 40 37 35 31 35 24 19 19 23 21 21 26 22 18 13 12 11
35 18 11 6 7 5 13 6 12 12 21 13 33 55 65 74 79 99 98 95 92 85 78 75 74 66 55 60 58 53 62 50 41 37 36 41 32 32 28 25 25 27 26 30 27 23 19 13 12
9 6 8 9 8 11 12 2 17 16 21 18 21 52 60 62 79 82 92 97 96 93 85 82 80 75 63 59 63 61 64 59 52 47 38 31 40 35 33 31 29 33 27 29 31 29 23 17 15
13 13 11 13 9 13 5 10 13 6 21 45 22 26 6 46 64 84 102 105 101 96 94 89 87 82 68 59 63 64 64 63 59 54 49 41 41 36 30 28 30 27 27 30 32 33 27 21 18
17 18 11 7 4 6 6 14 16 12 15 10 21 25 48 41 71 96 103 105 103 100 100 95 91 87 74 61 62 64 66 62 62 61 57 43 40 34 29 32 32 33 32 30 34 34 30 26 25
9 11 16 10 3 6 10 7 11 2 11 11 3 28 53 44 43 80 96 106 105 104 100 99 94 89 78 67 63 60 63 66 61 56 65 59 47 46 46 43 39 46 48 41 35 38 30 30 27
20 13 9 4 7 2 7 12 13 18 12 20 18 52 29 26 22 35 63 99 108 106 104 104 100 95 86 74 68 64 61 67 64 62 61 65 58 51 50 55 54 49 50 50 39 35 34 32 32
8 10 9 9 14 3 10 11 16 20 15 39 29 48 40 2 41 20 40 78 101 105 102 104 98 95 89 74 71 70 62 59 68 68 66 62 59 62 60 56 58 47 45 48 45 38 37 36 36
Wind_Direction_500mb
187 310 14 59 55 63 301 287 216 154 57 79 112 144 119 44 140 177 146 160 159 156 160 163 163 159 157 157 149 148 149 147 140 138 133 128 128 132 136 137 135 135 131 133 138 137 135 130 123
115 293 46 65 76 69 276 235 148 183 128 103 75 81 52 102 88 132 152 159 159 158 159 160 157 156 157 156 150 150 149 150 142 140 136 128 127 128 129 134 135 129 129 132 137 130 129 127 128
154 121 52 66 81 244 220 220 156 135 140 123 118 81 76 107 134 145 151 158 160 160 158 156 155 157 156 153 150 149 151 149 148 144 135 128 129 124 121 131 129 130 128 123 122 137 134 127 134
337 58 70 69 288 263 256 219 171 154 118 101 121 75 83 135 149 152 149 157 160 158 157 155 155 153 151 153 152 153 149 148 148 144 135 130 130 125 124 129 131 131 127 131 135 129 138 133 135
60 45 61 92 288 281 242 78 349 105 91 120 120 104 135 153 142 147 153 157 161 157 157 157 154 153 154 155 157 155 148 150 148 145 136 131 132 128 132 130 129 131 134 130 134 134 137 135 137
51 32 29 228 216 235 143 137 226 114 128 115 106 114 138 156 149 146 152 158 156 156 160 158 156 155 157 157 155 156 148 151 150 147 138 135 135 133 132 127 125 124 127 132 127 138 150 149 145
85 96 219 276 267 263 114 108 7 119 124 128 135 112 140 153 153 154 152 159 155 158 163 162 163 160 159 158 155 157 151 149 152 147 137 134 133 131 125 118 104 103 113 131 137 141 155 169 169
125 136 235 211 351 306 155 121 126 117 117 129 124 155 166 165 159 164 163 160 165 173 170 163 168 167 165 160 156 157 155 151 152 146 137 137 130 129 120 104 91 80 77 73 82 179 215 217 222
64 7 268 240 53 294 196 136 169 119 138 151 206 175 161 161 167 173 169 168 174 181 177 165 172 173 170 167 156 159 155 155 154 149 141 133 129 116 110 99 88 82 70 64 65 67 170 245 259
141 241 282 11 204 206 217 166 153 148 160 205 160 160 158 162 170 170 170 174 171 164 167 166 174 174 173 169 164 159 159 155 154 146 139 125 123 113 96 97 94 83 94 64 65 75 69 356 276
174 243 259 281 249 208 193 166 157 142 204 191 152 158 164 168 171 175 175 180 178 163 167 169 164 174 171 162 158 159 158 156 147 137 141 135 131 126 103 88 80 66 75 69 39 312 341 300 300
202 233 243 285 319 184 179 147 160 181 239 169 163 160 169 180 171 178 180 181 178 177 174 168 158 161 161 153 154 157 158 157 152 144 144 123 116 110 85 57 62 42 27 325 335 350 335 341 340
220 283 298 303 297 203 154 179 173 203 162 152 162 165 175 181 184 183 186 186 185 185 181 174 159 156 160 150 149 150 145 146 150 148 152 146 134 126 82 39 27 134 330 6 349 336 351 21 4
295 305 289 292 279 180 174 176 159 199 153 150 163 174 179 186 187 188 182 189 196 194 186 180 171 163 156 149 157 153 151 150 147 150 144 133 131 189 232 224 53 206 7 345 351 344 349 8 12
271 308 312 358 286 17 105 73 82 153 158 158 167 180 185 191 193 183 189 197 199 200 191 188 181 180 171 166 169 169 174 176 168 144 174 157 157 240 217 240 275 294 322 336 0 346 351 353 344
334 84 352 328 22 25 25 44 335 140 166 175 174 183 190 198 200 199 199 203 204 198 199 193 187 191 184 182 181 190 214 211 201 180 167 193 207 218 234 239 262 285 287 353 355 349 9 10 17
9 352 320 331 360 72 61 284 144 155 168 169 179 184 192 204 208 211 211 205 206 204 200 190 193 199 197 193 194 204 207 208 201 188 192 193 245 252 243 248 249 274 248 219 307 345 346 355 0
285 292 284 275 264 77 137 234 177 165 168 194 183 189 195 206 214 216 215 209 205 202 201 196 198 197 210 211 205 193 194 201 198 199 198 198 204 264 227 234 193 229 234 218 334 327 12 4 358
309 277 264 268 272 230 166 210 205 198 185 180 199 192 199 207 210 214 206 208 202 201 197 198 199 201 200 200 195 193 195 202 181 203 196 204 219 190 188 195 207 171 184 183 331 353 147 23 15
245 265 284 280 293 171 162 211 219 225 223 192 193 200 201 207 208 201 204 204 202 204 203 206 208 205 208 202 201 199 192 194 191 205 217 218 232 236 208 239 235 209 214 225 238 68 159 82 15
241 224 255 248 311 94 119 331 258 228 226 233 208 205 206 202 203 200 195 197 198 199 206 208 208 212 214 207 193 196 195 195 199 214 225 234 236 232 225 220 217 208 238 230 190 189 230 179 16
263 210 248 302 351 161 193 226 285 247 231 241 218 204 210 204 202 196 198 197 204 209 209 211 212 215 217 210 204 198 194 200 201 216 206 220 218 228 239 224 222 222 233 217 209 210 246 299 329
254 288 280 286 271 63 326 99 242 217 234 221 220 232 208 202 200 199 200 202 203 206 207 211 214 217 221 213 212 205 204 202 210 215 228 222 236 222 226 226 224 226 231 220 228 228 243 281 290
258 282 298 11 88 48 240 137 281 205 227 196 191 204 193 201 200 203 205 202 204 206 207 211 212 216 221 219 214 207 202 202 211 213 211 218 222 227 225 227 234 226 225 229 236 240 242 254 265
209 101 300 332 1 222 197 190 237 269 239 232 189 189 196 201 202 200 197 198 206 205 207 211 214 215 219 219 215 209 209 209 216 214 218 219 227 222 228 235 235 226 234 233 232 241 236 241 257
289 170 163 213 205 241 68 239 260 219 254 235 259 93 95 205 200 201 202 202 204 207 209 212 215 217 217 216 214 215 214 213 216 213 213 223 232 232 247 244 231 219 222 230 234 233 235 237 246
320 354 231 164 81 97 232 292 324 18 31 68 117 78 20 336 229 202 203 203 204 210 212 214 216 217 216 214 211 214 214 212 213 211 216 220 225 222 235 238 233 237 234 235 235 236 241 245 251
87 287 357 358 334 283 282 289 234 294 172 167 96 65 46 33 209 194 195 201 205 215 216 216 218 217 214 213 212 212 215 216 215 213 212 217 222 227 238 243 243 250 246 244 244 238 241 243 249
348 6 10 146 84 322 305 274 227 210 233 108 87 77 63 58 57 188 206 202 209 214 217 218 219 217 215 215 215 213 215 217 220 219 218 223 225 226 230 236 244 250 243 240 245 241 241 242 247
218 111 92 84 308 258 166 280 1 288 229 117 123 113 102 131 270 285 265 221 204 211 217 218 219 218 218 217 217 218 218 221 222 226 225 224 227 229 233 234 239 239 234 234 242 242 248 253 255
Wind_Speed_850mb
5 8 10 10 7 9 2 7 5 11 4 22 24 12 17 24 3 6 39 61 63 57 50 43 38 35 32 31 31 31 30 26 24 24 25 25 25 24 23 23 25 25 23 22 22 19 20 20 18
7 10 9 6 9 4 8 8 13 12 23 46 34 21 15 9 18 46 70 52 59 54 50 44 38 34 34 31 30 29 28 26 24 24 23 23 22 21 21 24 25 23 22 19 17 20 20 22 26
9 8 8 7 4 5 7 6 13 40 52 32 15 21 9 17 45 69 54 58 60 54 49 43 38 35 34 31 31 31 28 27 25 24 22 24 23 24 26 27 24 22 21 22 19 21 21 24 26
6 8 12 8 7 18 22 8 12 24 38 31 40 13 20 26 59 53 57 60 58 53 47 41 36 33 33 31 30 30 28 25 25 26 25 24 28 26 25 24 23 20 21 19 17 17 22 23 23
8 9 7 7 13 13 10 13 17 22 19 32 34 12 44 29 46 56 52 61 57 53 44 39 35 32 32 31 29 30 30 27 28 29 27 24 26 23 22 20 18 17 16 15 16 18 23 19 17
8 7 5 5 14 20 11 43 38 27 37 35 35 30 15 54 54 49 47 59 50 46 42 36 32 32 30 30 29 29 32 30 30 29 27 24 24 21 20 17 14 13 12 13 15 15 17 15 12
10 1 8 9 8 10 8 25 9 34 34 19 51 13 38 65 54 54 47 59 46 43 42 35 31 32 30 29 29 28 32 31 29 27 25 22 23 20 18 16 15 14 11 9 9 9 10 10 7
12 6 6 8 8 13 4 27 18 31 11 41 54 15 44 69 67 60 47 53 42 40 39 37 29 29 30 31 32 28 30 32 29 27 25 22 21 19 17 15 17 19 15 10 4 2 3 4 5
10 6 7 3 12 15 14 11 12 19 36 40 15 44 73 77 73 68 63 57 48 41 38 32 26 27 28 29 31 30 31 33 30 28 27 23 21 18 18 15 16 16 15 14 13 6 1 3 4
8 5 10 6 16 28 30 32 29 15 18 15 15 55 73 72 71 77 74 63 52 43 40 30 30 28 28 27 28 30 31 30 29 26 27 24 24 23 20 18 18 18 10 10 8 7 4 2 6
10 10 17 56 46 50 41 11 17 15 7 26 65 76 77 73 78 78 70 55 50 37 40 33 30 26 30 29 29 31 31 30 31 29 27 20 20 20 17 17 15 13 13 6 2 4 4 10 11
5 34 40 35 39 51 24 28 15 28 12 43 73 91 81 76 81 72 71 63 54 47 38 35 29 26 37 27 30 31 31 29 30 23 22 23 21 12 12 9 5 4 6 8 11 9 10 10 14
9 10 25 54 58 23 43 29 21 34 26 61 77 81 81 79 77 64 61 59 51 50 44 36 32 29 35 30 35 35 33 31 25 23 21 17 10 6 2 3 5 4 5 13 16 11 12 12 11
13 40 48 31 31 10 26 19 25 28 69 63 69 69 77 73 72 68 67 64 57 53 48 39 36 33 34 34 35 31 31 28 25 21 21 20 13 4 3 4 2 1 4 10 9 15 14 13 11
23 16 21 12 8 7 17 12 2 54 61 57 58 61 68 67 61 69 67 68 63 60 49 48 41 40 36 34 29 26 22 24 19 17 24 13 6 13 10 5 9 9 6 9 12 14 22 19 15
16 7 14 12 17 11 29 7 11 27 48 49 55 58 63 59 60 64 66 70 64 65 58 52 49 44 41 34 31 25 25 27 20 21 23 18 12 16 17 20 15 16 12 5 6 13 16 19 19
12 5 23 20 14 8 23 10 19 25 34 54 59 64 62 63 65 65 66 74 70 71 62 62 59 42 40 38 34 36 32 26 29 25 27 12 6 16 16 19 13 6 7 3 3 10 16 15 19
6 11 23 23 14 15 19 20 25 48 53 50 65 68 72 74 73 69 64 74 75 76 65 64 53 49 37 49 47 44 37 22 26 29 22 18 9 4 15 12 6 1 6 4 3 9 3 12 14
15 31 35 38 53 19 22 19 20 27 17 49 57 64 74 82 76 71 68 57 79 78 74 65 58 49 37 41 60 52 47 32 30 28 20 24 18 10 13 10 7 3 7 4 2 3 9 4 10
30 36 43 31 22 11 18 19 21 12 23 46 66 64 74 79 82 79 71 61 77 75 75 66 56 49 40 33 55 55 48 27 28 26 24 26 16 10 16 12 10 7 13 6 2 2 5 7 10
23 34 42 17 27 14 20 9 20 16 28 36 43 65 67 79 83 86 85 75 71 72 76 67 57 51 46 38 35 54 51 39 37 35 29 27 26 15 13 15 18 17 12 9 7 8 5 1 3
21 34 29 24 9 11 12 10 12 14 26 20 47 58 69 78 88 95 92 85 81 73 68 65 61 58 51 46 43 52 60 49 44 42 29 27 26 12 12 18 23 21 19 19 11 10 8 8 8
28 31 20 27 16 8 9 10 13 24 30 34 41 55 81 92 97 99 100 95 88 79 77 72 67 60 54 55 50 47 58 49 40 37 35 31 35 24 19 19 23 21 21 26 22 18 13 12 11
35 18 11 6 7 5 13 6 12 12 21 13 33 55 65 74 79 99 98 95 92 85 78 75 74 66 55 60 58 53 62 50 41 37 36 41 32 32 28 25 25 27 26 30 27 23 19 13 12
9 6 8 9 8 11 12 2 17 16 21 18 21 52 60 62 79 82 92 97 96 93 85 82 80 75 63 59 63 61 64 59 52 47 38 31 40 35 33 31 29 33 27 29 31 29 23 17 15
13 13 11 13 9 13 5 10 13 6 21 45 22 26 6 46 64 84 102 105 101 96 94 89 87 82 68 59 63 64 64 63 59 54 49 41 41 36 30 28 30 27 27 30 32 33 27 21 18
17 18 11 7 4 6 6 14 16 12 15 10 21 25 48 41 71 96 103 105 103 100 100 95 91 87 74 61 62 64 66 62 62 61 57 43 40 34 29 32 32 33 32 30 34 34 30 26 25
9 11 16 10 3 6 10 7 11 2 11 11 3 28 53 44 43 80 96 106 105 104 100 99 94 89 78 67 63 60 63 66 61 56 65 59 47 46 46 43 39 46 48 41 35 38 30 30 27
20 13 9 4 7 2 7 12 13 18 12 20 18 52 29 26 22 35 63 99 108 106 104 104 100 95 86 74 68 64 61 67 64 62 61 65 58 51 50 55 54 49 50 50 39 35 34 32 32
8 10 9 9 14 3 10 11 16 20 15 39 29 48 40 2 41 20 40 78 101 105 102 104 98 95 89 74 71 70 62 59 68 68 66 62 59 62 60 56 58 47 45 48 45 38 37 36 36
Wind_Direction_850mb
187 310 14 59 55 63 301 287 216 154 57 79 112 144 119 44 140 177 146 160 159 156 160 163 163 159 157 157 149 148 149 147 140 138 133 128 128 132 136 137 135 135 131 133 138 137 135 130 123
115 293 46 65 76 69 276 235 148 183 128 103 75 81 52 102 88 132 152 159 159 158 159 160 157 156 157 156 150 150 149 150 142 140 136 128 127 128 129 134 135 129 129 132 137 130 129 127 128
154 121 52 66 81 244 220 220 156 135 140 123 118 81 76 107 134 145 151 158 160 160 158 156 155 157 156 153 150 149 151 149 148 144 135 128 129 124 121 131 129 130 128 123 122 137 134 127 134
337 58 70 69 288 263 256 219 171 154 118 101 121 75 83 135 149 152 149 157 160 158 157 155 155 153 151 153 152 153 149 148 148 144 135 130 130 125 124 129 131 131 127 131 135 129 138 133 135
60 45 61 92 288 281 242 78 349 105 91 120 120 104 135 153 142 147 153 157 161 157 157 157 154 153 154 155 157 155 148 150 148 145 136 131 132 128 132 130 129 131 134 130 134 134 137 135 137
51 32 29 228 216 235 143 137 226 114 128 115 106 114 138 156 149 146 152 158 156 156 160 158 156 155 157 157 155 156 148 151 150 147 138 135 135 133 132 127 125 124 127 132 127 138 150 149 145
85 96 219 276 267 263 114 108 7 119 124 128 135 112 140 153 153 154 152 159 155 158 163 162 163 160 159 158 155 157 151 149 152 147 137 134 133 131 125 118 104 103 113 131 137 141 155 169 169
125 136 235 211 351 306 155 121 126 117 117 129 124 155 166 165 159 164 163 160 165 173 170 163 168 167 165 160 156 157 155 151 152 146 137 137 130 129 120 104 91 80 77 73 82 179 215 217 222
64 7 268 240 53 294 196 136 169 119 138 151 206 175 161 161 167 173 169 168 174 181 177 165 172 173 170 167 156 159 155 155 154 149 141 133 129 116 110 99 88 82 70 64 65 67 170 245 259
141 241 282 11 204 206 217 166 153 148 160 205 160 160 158 162 170 170 170 174 171 164 167 166 174 174 173 169 164 159 159 155 154 146 139 125 123 113 96 97 94 83 94 64 65 75 69 356 276
174 243 259 281 249 208 193 166 157 142 204 191 152 158 164 168 171 175 175 180 178 163 167 169 164 174 171 162 158 159 158 156 147 137 141 135 131 126 103 88 80 66 75 69 39 312 341 300 300
202 233 243 285 319 184 179 147 160 181 239 169 163 160 169 180 171 178 180 181 178 177 174 168 158 161 161 153 154 157 158 157 152 144 144 123 116 110 85 57 62 42 27 325 335 350 335 341 340
220 283 298 303 297 203 154 179 173 203 162 152 162 165 175 181 184 183 186 186 185 185 181 174 159 156 160 150 149 150 145 146 150 148 152 146 134 126 82 39 27 134 330 6 349 336 351 21 4
295 305 289 292 279 180 174 176 159 199 153 150 163 174 179 186 187 188 182 189 196 194 186 180 171 163 156 149 157 153 151 150 147 150 144 133 131 189 232 224 53 206 7 345 351 344 349 8 12
271 308 312 358 286 17 105 73 82 153 158 158 167 180 185 191 193 183 189 197 199 200 191 188 181 180 171 166 169 169 174 176 168 144 174 157 157 240 217 240 275 294 322 336 0 346 351 353 344
334 84 352 328 22 25 25 44 335 140 166 175 174 183 190 198 200 199 199 203 204 198 199 193 187 191 184 182 181 190 214 211 201 180 167 193 207 218 234 239 262 285 287 353 355 349 9 10 17
9 352 320 331 360 72 61 284 144 155 168 169 179 184 192 204 208 211 211 205 206 204 200 190 193 199 197 193 194 204 207 208 201 188 192 193 245 252 243 248 249 274 248 219 307 345 346 355 0
285 292 284 275 264 77 137 234 177 165 168 194 183 189 195 206 214 216 215 209 205 202 201 196 198 197 210 211 205 193 194 201 198 199 198 198 204 264 227 234 193 229 234 218 334 327 12 4 358
309 277 264 268 272 230 166 210 205 198 185 180 199 192 199 207 210 214 206 208 202 201 197 198 199 201 200 200 195 193 195 202 181 203 196 204 219 190 188 195 207 171 184 183 331 353 147 23 15
245 265 284 280 293 171 162 211 219 225 223 192 193 200 201 207 208 201 204 204 202 204 203 206 208 205 208 202 201 199 192 194 191 205 217 218 232 236 208 239 235 209 214 225 238 68 159 82 15
241 224 255 248 311 94 119 331 258 228 226 233 208 205 206 202 203 200 195 197 198 199 206 208 208 212 214 207 193 196 195 195 199 214 225 234 236 232 225 220 217 208 238 230 190 189 230 179 16
263 210 248 302 351 161 193 226 285 247 231 241 218 204 210 204 202 196 198 197 204 209 209 211 212 215 217 210 204 198 194 200 201 216 206 220 218 228 239 224 222 222 233 217 209 210 246 299 329
254 288 280 286 271 63 326 99 242 217 234 221 220 232 208 202 200 199 200 202 203 206 207 211 214 217 221 213 212 205 204 202 210 215 228 222 236 222 226 226 224 226 231 220 228 228 243 281 290
258 282 298 11 88 48 240 137 281 205 227 196 191 204 193 201 200 203 205 202 204 206 207 211 212 216 221 219 214 207 202 202 211 213 211 218 222 227 225 227 234 226 225 229 236 240 242 254 265
209 101 300 332 1 222 197 190 237 269 239 232 189 189 196 201 202 200 197 198 206 205 207 211 214 215 219 219 215 209 209 209 216 214 218 219 227 222 228 235 235 226 234 233 232 241 236 241 257
289 170 163 213 205 241 68 239 260 219 254 235 259 93 95 205 200 201 202 202 204 207 209 212 215 217 217 216 214 215 214 213 216 213 213 223 232 232 247 244 231 219 222 230 234 233 235 237 246
320 354 231 164 81 97 232 292 324 18 31 68 117 78 20 336 229 202 203 203 204 210 212 214 216 217 216 214 211 214 214 212 213 211 216 220 225 222 235 238 233 237 234 235 235 236 241 245 251
87 287 357 358 334 283 282 289 234 294 172 167 96 65 46 33 209 194 195 201 205 215 216 216 218 217 214 213 212 212 215 216 215 213 212 217 222 227 238 243 243 250 246 244 244 238 241 243 249
348 6 10 146 84 322 305 274 227 210 233 108 87 77 63 58 57 188 206 202 209 214 217 218 219 217 215 215 215 213 215 217 220 219 218 223 225 226 230 236 244 250 243 240 245 241 241 242 247
218 111 92 84 308 258 166 280 1 288 229 117 123 113 102 131 270 285 265 221 204 211 217 218 219 218 218 217 217 218 218 221 222 226 225 224 227 229 233 234 239 239 234 234 242 242 248 253 255